Location: Feudal
(51.8839°N, 107.6105°W)
Time: 05:50:50
(UTC+00:00)

Envisat - Pass Details

Date: 20 January 2022
Orbit: 764 x 765 km, 98.2° (Epoch: 25 May)

Event Time Altitude Azimuth Distance (km) Brightness Sun altitude
Rises 12:58:43 0° 10° (N) 3,245 6.3 -19.1°
Reaches altitude 10° 13:01:06 10° 5° (N) 2,314 5.4 -18.7°
Maximum altitude 13:05:57 46° 293° (WNW) 1,022 3.2 -18.0°
Drops below altitude 10° 13:10:46 10° 221° (SW) 2,300 5.2 -17.3°
Sets 13:13:08 0° 216° (SW) 3,222 6.0 -16.9°
